Regional Weather Roundup
Issued by NWS Charleston, SC

Current Version | Previous Version | Text Only | Print | Product List | Glossary On
Versions: 1 2 3 4 5 6 7 8 9 10 11 12 13 14 15 16 17 18 19 20 21 22 23 24 25 26 27 28 29 30 31 32 33 34 35 36 37 38 39 40 41 42 43 44 45 46 47 48 49 50
000
ASUS42 KCHS 252227
RWRCHS

REGIONAL WEATHER ROUNDUP
NATIONAL WEATHER SERVICE CHARLESTON SC
600 PM EDT MON MAY 25 2015

NOTE: "FAIR" INDICATES FEW OR NO CLOUDS BELOW 12,000 FEET WITH NO
SIGNIFICANT WEATHER AND/OR OBSTRUCTIONS TO VISIBILITY.

NOT ALL STATIONS ARE QUALITY CONTROLLED BY THE NATIONAL
WEATHER SERVICE. USE DATA WITH CAUTION...ESPECIALLY
DEWPOINT OBSERVATIONS.

SCZ027-030-031-034>040-042>050-252300-
...SOUTHEAST SOUTH CAROLINA...

CITY           SKY/WX    TMP DP  RH WIND       PRES   REMARKS
N CHARLESTON   MOSUNNY   79  66  64 E9        30.25F
WATERFRONT PAR   N/A     77  69  76 E13       30.23F
MOUNT PLEASANT LGT RAIN  79  68  69 E8        30.26S
JOHNS ISLAND   PTCLDY    79  70  73 E13       30.26S
PINOPOLIS        N/A     82  66  57 SE5       30.17F
MONCKS CORNER  MOCLDY    81  66  61 SE7       30.25F
SUMMERVILLE    MOCLDY    82  68  61 SE6       30.26S
BEAUFORT MCAS  SUNNY     81  70  69 E16       30.24S
BEAUFORT ARPT  FAIR      79  70  73 E12       30.24S HAZE
HILTON HEAD IS MOSUNNY   79  70  73 NE10      30.26S
WALTERBORO     PTCLDY    79  66  65 SE8       30.25S
ALLENDALE      MOCLDY    82  66  57 SE8G14    30.22R

...SOUTHERN MIDLANDS AND PEE DEE...

CITY           SKY/WX    TMP DP  RH WIND       PRES   REMARKS
GEORGETOWN     NOT AVBL
KINGSTREE      NOT AVBL
ORANGEBURG     SUNNY     82  65  56 E8        30.24F
BARNWELL       MOCLDY    84  66  54 E10G16    30.23S
AIKEN          FAIR      82  59  44 E7        30.25S
MANNING        FAIR      79  61  53 S5        30.25S
COLUMBIA       PTSUNNY   83  62  49 E12       30.22F
SUMTER         MOSUNNY   84  62  46 SE9       30.22F
FLORENCE       MOSUNNY   82  63  52 S14       30.25F
MYRTLE BEACH   MOSUNNY   77  64  65 SE12      30.31F
N MYRTLE BEACH SUNNY     77  64  64 SE7       30.29F

$$

GAZ063-065-086>088-099>101-113>116-118-119-134>141-150-252300-
...SOUTHEAST GEORGIA...

CITY           SKY/WX    TMP DP  RH WIND       PRES   REMARKS
SAVANNAH ARPT  PTSUNNY   81  66  60 E16       30.23S
HUNTER AAF     MOSUNNY   81  69  66 SE9G17    30.21S
FORT STEWART   CLOUDY    82  67  60 E14       30.21R
STATESBORO     PTSUNNY   80  73  80 SE5       30.23R
SYLVANIA       MOCLDY    82  71  70 SE7       30.23S
CLAXTON        FAIR      81  70  69 SE10      30.22S

...CSRA...CENTRAL AND FAR SOUTHEAST GEORGIA...

CITY           SKY/WX    TMP DP  RH WIND       PRES   REMARKS
THOMSON        PTSUNNY   87  69  54 SE3       30.25S HX  90
AUGUSTA-BUSH   PTSUNNY   85  67  54 SE10      30.20S
AUGUSTA-DANIEL PTSUNNY   86  64  47 E8        30.21F
SWAINSBORO     CLOUDY    82  72  69 SE5       30.22S
VIDALIA        CLOUDY    81  72  74 SE6       30.21S
EASTMAN        FAIR      79  79 100 E6        30.22F THUNDER
HAZLEHURST     FAIR      84  70  61 SE7       30.17F
ALMA           PTSUNNY   83  69  62 E10G18    30.18S
WAYCROSS       MOSUNNY   83  73  72 SE9       30.18S
JESUP          MOCLDY    86  72  62 SE10      30.21S HX  92
BAXLEY         FAIR      82  70  65 SE9       30.18F
BRUNSWICK      MOSUNNY   81  68  65 E12       30.22S
SAINT SIMONS   NOT AVBL

$$

SCZ027-028-034-036>038-045-046-048>050-GAZ119-141-252300-
...LAKE AND SUPPLEMENTAL COASTAL OBSERVATIONS...

STATION/POSITION TIME  TEMP    WIND        PRES    WAVE   SWELL
                       AIR SEA DIR/SP/G            HT/PER HT/PER/DIR
                 (UTC) (F)     (DEG/KT/KT) (MB)    (FT/S) (FT/S/D)
UPR LAKE MARION  NOT AVBL
WINYAH BAY       2145   76     100/  8     1024.0F
LAKE MURRAY      2100   82     140/  4/  8 1023.4F
ACE BASIN NERRS  NOT AVBL
FORT PULASKI     2200   77 78   70/ 13/ 15 1024.5S
SAPELO ISLAND    2200   82      90/  8     1023.0S

$$

ANZ835-935-AMZ111-154-330-350-352-354-370-450-454-472-252300-
...C-MAN AND BUOY OBSERVATIONS...

STATION/POSITION TIME  TEMP    WIND        PRES    WAVE   SWELL
                       AIR SEA DIR/SP/G            HT/PER HT/PER/DIR
                 (UTC) (F)     (DEG/KT/KT) (MB)    (FT/S) (FT/S/D)
BUOY 41004       2150   76 76  100/ 10/ 12 1024.3F   4/ 6   3/ 6
BUOY 41008       2150   77 77  100/  8/ 10 1023.6F   3/ 8   3/100/ 8
FOLLY BEACH CMAN 2200   76      90/ 12/ 13 1024.9F
CAPERS NEARSHORE 2108   76     100/ 10/ 12 1025.1F
FRIPP NEARSHORE  2100   77      80/ 12/ 14 1023.8F


STATION/POSITION TIME  TEMP    WIND        PRES    WAVE   SWELL
                       AIR SEA DIR/SP/G            HT/PER HT/PER/DIR
                 (UTC) (F)     (DEG/KT/KT) (MB)    (FT/S) (FT/S/D)
5E ST. MARYS GA  2121      79                N/A     3/ 8
FRYING PAN BUOY  2150   76 75  140/ 10/ 12 1026.3F   3/ 6   2/130/ 6
BUOY 41025       2150   75 77  160/ 10/ 14 1026.7F   2/ 7   2/ 60/ 7
CAPE LOOKOUT NC  2200   74     160/  9/ 10 1026.1F
BUOY 41002       2150   75 75  120/ 12/ 16 1026.2F   3/ 6   2/ 80/ 6
BUOY 41010       2120   79 81  100/ 12/ 16 1022.7F
ST AUGUSTINE FL  2200   78 79  100/ 13/ 14 1022.9F


$$


USA.gov is the U.S. government's official web portal to all federal, state and local government web resources and services.